EAL315 KSAN-KPHX

Flight info

Callsign EAL315
Flight time 0h 52m
Altitude 33000
Route ZZOOO4 HOGGZ HYDRR1
Aircraft A306/H-SDE3FGHIRWY/LB1

Departure

Time 2026-05-05 06:55
Airport San Diego International Airport (KSAN)

Arrival

Time 2026-05-05 07:47
Airport Phoenix Sky Harbor International Airport (KPHX)
Time Latitude Longitude Altitude Speed Heading
2026-05-05 06:24 32.73395 -117.20052 24 ft 0 kts 255°
2026-05-05 06:42 32.73395 -117.20051 24 ft 0 kts 255°
2026-05-05 06:43 32.73396 -117.20046 24 ft 2 kts 255°
2026-05-05 06:43 32.73401 -117.20029 24 ft 2 kts 255°
2026-05-05 06:44 32.73402 -117.20012 24 ft 2 kts 281°
2026-05-05 06:44 32.73397 -117.19995 24 ft 2 kts 307°
2026-05-05 06:44 32.73386 -117.19984 24 ft 2 kts 334°
2026-05-05 06:44 32.73371 -117.19979 24 ft 2 kts
2026-05-05 06:45 32.73363 -117.19980 24 ft 1 kts 14°
2026-05-05 06:45 32.73360 -117.19981 24 ft 0 kts 13°
2026-05-05 06:47 32.73380 -117.19975 24 ft 6 kts 14°
2026-05-05 06:48 32.73442 -117.19955 24 ft 12 kts 21°
2026-05-05 06:48 32.73468 -117.19851 24 ft 17 kts 103°
2026-05-05 06:48 32.73430 -117.19698 25 ft 21 kts 105°
2026-05-05 06:48 32.73386 -117.19518 27 ft 23 kts 107°
2026-05-05 06:49 32.73347 -117.19359 27 ft 13 kts 106°
2026-05-05 06:49 32.73328 -117.19275 27 ft 7 kts 106°
2026-05-05 06:49 32.73317 -117.19233 27 ft 3 kts 107°
2026-05-05 06:49 32.73312 -117.19212 27 ft 3 kts 107°
2026-05-05 06:50 32.73306 -117.19187 26 ft 2 kts 105°
2026-05-05 06:50 32.73299 -117.19158 26 ft 6 kts 106°
2026-05-05 06:50 32.73278 -117.19072 26 ft 14 kts 105°
2026-05-05 06:50 32.73247 -117.18938 25 ft 18 kts 107°
2026-05-05 06:51 32.73211 -117.18785 25 ft 19 kts 107°
2026-05-05 06:51 32.73171 -117.18633 24 ft 20 kts 108°
2026-05-05 06:51 32.73128 -117.18453 24 ft 24 kts 105°
2026-05-05 06:51 32.73078 -117.18250 24 ft 25 kts 109°
2026-05-05 06:52 32.73033 -117.18061 24 ft 21 kts 107°
2026-05-05 06:52 32.72999 -117.17921 25 ft 13 kts 105°
2026-05-05 06:52 32.72981 -117.17847 27 ft 5 kts 107°
2026-05-05 06:52 32.72972 -117.17812 27 ft 3 kts 107°
2026-05-05 06:53 32.72963 -117.17776 27 ft 5 kts 103°
2026-05-05 06:53 32.72961 -117.17732 28 ft 5 kts 84°
2026-05-05 06:53 32.72974 -117.17690 29 ft 5 kts 54°
2026-05-05 06:53 32.73009 -117.17666 30 ft 7 kts
2026-05-05 06:54 32.73049 -117.17705 30 ft 10 kts 288°
2026-05-05 06:54 32.73076 -117.17816 28 ft 23 kts 286°
2026-05-05 06:54 32.73172 -117.18213 24 ft 85 kts 287°
2026-05-05 06:54 32.73403 -117.19165 28 ft 150 kts 286°
2026-05-05 06:55 32.73736 -117.20465 654 ft 169 kts 286°
2026-05-05 06:55 32.74075 -117.21822 1284 ft 179 kts 284°
2026-05-05 06:55 32.74434 -117.23325 1654 ft 209 kts 285°
2026-05-05 06:55 32.74863 -117.25097 2202 ft 233 kts 285°
2026-05-05 06:56 32.75303 -117.26934 3277 ft 236 kts 285°
2026-05-05 06:56 32.75745 -117.28768 4417 ft 236 kts 285°
2026-05-05 06:56 32.76189 -117.30625 5448 ft 240 kts 284°
2026-05-05 06:56 32.76393 -117.32563 6447 ft 241 kts 258°
2026-05-05 06:57 32.75602 -117.34235 7514 ft 241 kts 222°
2026-05-05 06:57 32.74088 -117.35008 8503 ft 248 kts 187°
2026-05-05 06:57 32.72408 -117.34566 9376 ft 261 kts 153°
2026-05-05 06:57 32.70969 -117.33203 10222 ft 270 kts 141°
2026-05-05 06:58 32.69595 -117.31686 11054 ft 274 kts 141°
2026-05-05 06:58 32.68191 -117.30135 11850 ft 277 kts 141°
2026-05-05 06:58 32.66777 -117.28581 12610 ft 281 kts 141°
2026-05-05 06:58 32.65337 -117.26997 13346 ft 285 kts 141°
2026-05-05 06:59 32.63895 -117.25371 14053 ft 291 kts 136°
2026-05-05 06:59 32.62927 -117.23167 14404 ft 319 kts 107°
2026-05-05 06:59 32.62606 -117.20490 14719 ft 341 kts 97°
2026-05-05 06:59 32.62416 -117.17596 15014 ft 362 kts 97°
2026-05-05 07:00 32.62200 -117.14526 15232 ft 385 kts 98°
2026-05-05 07:00 32.61980 -117.11324 15511 ft 406 kts 92°
2026-05-05 07:00 32.62494 -117.07911 15938 ft 426 kts 73°
2026-05-05 07:00 32.63546 -117.04679 16789 ft 429 kts 68°
2026-05-05 07:01 32.64718 -117.01436 17664 ft 432 kts 68°
2026-05-05 07:01 32.65880 -116.98141 18477 ft 435 kts 69°
2026-05-05 07:01 32.66732 -116.94667 19063 ft 440 kts 83°
2026-05-05 07:01 32.66974 -116.91049 19667 ft 445 kts 91°
2026-05-05 07:02 32.66983 -116.87392 20474 ft 446 kts 94°
2026-05-05 07:02 32.66979 -116.83717 21054 ft 454 kts 93°
2026-05-05 07:02 32.67015 -116.79949 21557 ft 464 kts 92°
2026-05-05 07:02 32.67086 -116.76102 22229 ft 470 kts 92°
2026-05-05 07:03 32.67095 -116.72176 22809 ft 475 kts 95°
2026-05-05 07:03 32.67044 -116.68262 23403 ft 481 kts 95°
2026-05-05 07:03 32.66971 -116.64317 23924 ft 486 kts 96°
2026-05-05 07:03 32.66901 -116.60278 24389 ft 493 kts 96°
2026-05-05 07:04 32.66830 -116.56134 24802 ft 501 kts 97°
2026-05-05 07:04 32.66764 -116.52018 25250 ft 508 kts 97°
2026-05-05 07:04 32.66697 -116.47837 25747 ft 513 kts 97°
2026-05-05 07:04 32.66634 -116.43605 26209 ft 519 kts 97°
2026-05-05 07:05 32.66773 -116.39283 26631 ft 530 kts 92°
2026-05-05 07:05 32.67157 -116.34924 27107 ft 537 kts 90°
2026-05-05 07:05 32.67639 -116.30505 27618 ft 540 kts 90°
2026-05-05 07:05 32.68106 -116.26054 28088 ft 542 kts 90°
2026-05-05 07:06 32.68521 -116.21643 28530 ft 544 kts 92°
2026-05-05 07:06 32.68917 -116.17160 29004 ft 545 kts 92°
2026-05-05 07:06 32.69300 -116.12724 29434 ft 549 kts 92°
2026-05-05 07:06 32.69690 -116.08180 29864 ft 553 kts 92°
2026-05-05 07:07 32.70085 -116.03649 30328 ft 557 kts 92°
2026-05-05 07:07 32.70499 -115.99075 31019 ft 555 kts 92°
2026-05-05 07:07 32.70922 -115.94584 31775 ft 551 kts 91°
2026-05-05 07:07 32.71344 -115.90068 32453 ft 547 kts 92°
2026-05-05 07:08 32.71749 -115.85631 32817 ft 547 kts 92°
2026-05-05 07:08 32.72572 -115.76669 32886 ft 546 kts 92°
2026-05-05 07:09 32.73387 -115.67765 32898 ft 545 kts 92°
2026-05-05 07:09 32.74186 -115.58876 32902 ft 542 kts 92°
2026-05-05 07:10 32.74945 -115.49918 32910 ft 541 kts 94°
2026-05-05 07:10 32.75184 -115.41116 32915 ft 535 kts 98°
2026-05-05 07:11 32.75324 -115.32258 32903 ft 536 kts 98°
2026-05-05 07:11 32.75541 -115.23463 32868 ft 535 kts 97°
2026-05-05 07:12 32.75748 -115.14665 32855 ft 535 kts 97°
2026-05-05 07:12 32.75944 -115.05890 32865 ft 533 kts 97°
2026-05-05 07:13 32.76125 -114.97094 32862 ft 532 kts 97°
2026-05-05 07:13 32.76300 -114.88269 32865 ft 533 kts 97°
2026-05-05 07:14 32.76486 -114.79550 32870 ft 531 kts 97°
2026-05-05 07:14 32.76647 -114.70738 32912 ft 531 kts 97°
2026-05-05 07:15 32.76812 -114.61974 32955 ft 533 kts 97°
2026-05-05 07:15 32.76916 -114.53210 32972 ft 532 kts 98°
2026-05-05 07:16 32.77035 -114.44460 32981 ft 531 kts 97°
2026-05-05 07:16 32.77150 -114.35667 32998 ft 537 kts 97°
2026-05-05 07:17 32.77267 -114.26779 32958 ft 539 kts 97°
2026-05-05 07:17 32.77381 -114.17875 32945 ft 539 kts 98°
2026-05-05 07:18 32.77477 -114.08929 32938 ft 544 kts 97°
2026-05-05 07:18 32.78098 -113.99972 32700 ft 546 kts 89°
2026-05-05 07:18 32.78662 -113.95576 32055 ft 543 kts 88°
2026-05-05 07:19 32.79224 -113.91137 31161 ft 545 kts 89°
2026-05-05 07:19 32.79738 -113.86719 30376 ft 543 kts 89°
2026-05-05 07:19 32.80224 -113.82269 29670 ft 539 kts 90°
2026-05-05 07:19 32.80685 -113.77908 29031 ft 535 kts 89°
2026-05-05 07:20 32.81153 -113.73532 28421 ft 532 kts 89°
2026-05-05 07:20 32.81766 -113.69264 27794 ft 536 kts 80°
2026-05-05 07:20 32.83306 -113.65202 27167 ft 540 kts 59°
2026-05-05 07:20 32.85715 -113.61803 26627 ft 534 kts 44°
2026-05-05 07:21 32.88371 -113.58822 26041 ft 528 kts 41°
2026-05-05 07:21 32.91007 -113.55796 25491 ft 523 kts 44°
2026-05-05 07:21 32.93493 -113.52764 25075 ft 514 kts 45°
2026-05-05 07:21 32.95939 -113.49654 24479 ft 510 kts 47°
2026-05-05 07:22 32.98301 -113.46519 23966 ft 503 kts 49°
2026-05-05 07:22 33.00565 -113.43449 23521 ft 496 kts 49°
2026-05-05 07:22 33.02833 -113.40349 22814 ft 495 kts 49°
2026-05-05 07:22 33.05065 -113.37313 22280 ft 488 kts 49°
2026-05-05 07:23 33.07304 -113.34270 21951 ft 475 kts 50°
2026-05-05 07:23 33.09440 -113.31387 21718 ft 462 kts 49°
2026-05-05 07:23 33.11543 -113.28545 21456 ft 449 kts 49°
2026-05-05 07:23 33.13588 -113.25781 21206 ft 438 kts 49°
2026-05-05 07:24 33.15571 -113.23087 20946 ft 435 kts 49°
2026-05-05 07:24 33.17557 -113.20393 20697 ft 433 kts 49°
2026-05-05 07:24 33.19551 -113.17696 20450 ft 431 kts 49°
2026-05-05 07:24 33.21515 -113.15036 20165 ft 427 kts 49°
2026-05-05 07:25 33.23475 -113.12379 19742 ft 421 kts 49°
2026-05-05 07:25 33.25375 -113.09792 19259 ft 416 kts 49°
2026-05-05 07:25 33.27104 -113.07063 18829 ft 406 kts 64°
2026-05-05 07:25 33.27877 -113.03948 18588 ft 386 kts 87°
2026-05-05 07:26 33.27958 -113.00773 18342 ft 378 kts 95°
2026-05-05 07:26 33.27866 -112.97643 18099 ft 378 kts 96°
2026-05-05 07:26 33.27807 -112.94530 17842 ft 378 kts 94°
2026-05-05 07:26 33.27826 -112.91388 17595 ft 376 kts 92°
2026-05-05 07:27 33.27893 -112.88302 17351 ft 374 kts 91°
2026-05-05 07:27 33.27974 -112.85225 17097 ft 367 kts 91°
2026-05-05 07:27 33.28087 -112.82206 16834 ft 358 kts 89°
2026-05-05 07:27 33.28312 -112.79305 16574 ft 349 kts 87°
2026-05-05 07:28 33.28580 -112.76460 16319 ft 344 kts 86°
2026-05-05 07:28 33.28853 -112.73596 16063 ft 345 kts 86°
2026-05-05 07:28 33.29120 -112.70790 15818 ft 342 kts 86°
2026-05-05 07:28 33.29390 -112.67962 15577 ft 342 kts 86°
2026-05-05 07:29 33.29655 -112.65138 15321 ft 340 kts 86°
2026-05-05 07:29 33.29915 -112.62373 15080 ft 337 kts 86°
2026-05-05 07:29 33.30178 -112.59583 14845 ft 337 kts 86°
2026-05-05 07:29 33.30436 -112.56802 14592 ft 334 kts 86°
2026-05-05 07:30 33.30689 -112.54089 14352 ft 331 kts 86°
2026-05-05 07:30 33.31196 -112.48653 13875 ft 322 kts 86°
2026-05-05 07:30 33.31435 -112.46053 13622 ft 314 kts 86°
2026-05-05 07:31 33.31672 -112.43474 13375 ft 307 kts 86°
2026-05-05 07:31 33.31905 -112.40954 13093 ft 301 kts 86°
2026-05-05 07:31 33.32129 -112.38506 12800 ft 296 kts 87°
2026-05-05 07:31 33.32353 -112.36040 12511 ft 301 kts 87°
2026-05-05 07:32 33.32576 -112.33507 12236 ft 312 kts 87°
2026-05-05 07:32 33.32806 -112.30939 11900 ft 312 kts 87°
2026-05-05 07:32 33.33040 -112.28402 11565 ft 306 kts 87°
2026-05-05 07:32 33.33267 -112.25876 11243 ft 301 kts 87°
2026-05-05 07:33 33.33488 -112.23435 10917 ft 296 kts 87°
2026-05-05 07:33 33.33710 -112.21008 10621 ft 290 kts 87°
2026-05-05 07:33 33.33926 -112.18632 10366 ft 283 kts 87°
2026-05-05 07:33 33.34136 -112.16332 10105 ft 276 kts 87°
2026-05-05 07:34 33.34340 -112.14105 9810 ft 267 kts 87°
2026-05-05 07:34 33.34534 -112.11952 9537 ft 256 kts 88°
2026-05-05 07:34 33.34680 -112.09845 9173 ft 250 kts 92°
2026-05-05 07:34 33.34700 -112.07827 8892 ft 245 kts 94°
2026-05-05 07:35 33.34687 -112.05772 8615 ft 244 kts 94°
2026-05-05 07:35 33.34665 -112.03768 8365 ft 246 kts 94°
2026-05-05 07:35 33.34645 -112.01704 8039 ft 246 kts 93°
2026-05-05 07:35 33.34624 -111.99667 7680 ft 246 kts 93°
2026-05-05 07:36 33.34597 -111.97636 7372 ft 245 kts 93°
2026-05-05 07:36 33.34574 -111.95626 7189 ft 238 kts 93°
2026-05-05 07:36 33.34555 -111.93668 7132 ft 236 kts 94°
2026-05-05 07:36 33.34381 -111.91687 7102 ft 238 kts 103°
2026-05-05 07:37 33.34061 -111.89758 7076 ft 240 kts 104°
2026-05-05 07:37 33.33736 -111.87763 7055 ft 242 kts 103°
2026-05-05 07:37 33.33425 -111.85794 7038 ft 242 kts 103°
2026-05-05 07:37 33.33122 -111.83810 7027 ft 243 kts 103°
2026-05-05 07:38 33.32822 -111.81838 7017 ft 243 kts 102°
2026-05-05 07:38 33.32525 -111.79853 7013 ft 243 kts 103°
2026-05-05 07:38 33.32222 -111.77841 7015 ft 242 kts 103°
2026-05-05 07:38 33.31925 -111.75858 7012 ft 242 kts 103°
2026-05-05 07:39 33.31628 -111.73878 7017 ft 244 kts 103°
2026-05-05 07:39 33.31332 -111.71886 7014 ft 244 kts 103°
2026-05-05 07:39 33.31236 -111.69881 7013 ft 246 kts 78°
2026-05-05 07:39 33.32100 -111.68117 7054 ft 251 kts 41°
2026-05-05 07:40 33.33670 -111.67222 6819 ft 254 kts
2026-05-05 07:40 33.35339 -111.67542 6545 ft 243 kts 328°
2026-05-05 07:40 33.36693 -111.68726 6215 ft 237 kts 316°
2026-05-05 07:40 33.37970 -111.69968 5959 ft 234 kts 320°
2026-05-05 07:41 33.39278 -111.71103 5712 ft 231 kts 322°
2026-05-05 07:41 33.40599 -111.72157 5534 ft 223 kts 323°
2026-05-05 07:41 33.41884 -111.73133 5380 ft 215 kts 324°
2026-05-05 07:41 33.42843 -111.74406 5127 ft 201 kts 285°
2026-05-05 07:42 33.42976 -111.75927 5066 ft 178 kts 267°
2026-05-05 07:42 33.42991 -111.77361 4925 ft 166 kts 267°
2026-05-05 07:42 33.43018 -111.78690 4636 ft 156 kts 267°
2026-05-05 07:42 33.43033 -111.79990 4225 ft 154 kts 268°
2026-05-05 07:43 33.43043 -111.81239 3894 ft 148 kts 268°
2026-05-05 07:43 33.43057 -111.82456 3502 ft 147 kts 268°
2026-05-05 07:43 33.43068 -111.83663 3126 ft 144 kts 266°
2026-05-05 07:43 33.43080 -111.84802 2998 ft 130 kts 266°
2026-05-05 07:44 33.43085 -111.85915 3024 ft 140 kts 267°
2026-05-05 07:44 33.43087 -111.87096 3024 ft 144 kts 266°
2026-05-05 07:44 33.43098 -111.88328 2931 ft 149 kts 266°
2026-05-05 07:44 33.43102 -111.89562 2722 ft 148 kts 267°
2026-05-05 07:45 33.43118 -111.90782 2522 ft 147 kts 267°
2026-05-05 07:45 33.43118 -111.92006 2317 ft 147 kts 266°
2026-05-05 07:45 33.43109 -111.93225 2133 ft 146 kts 265°
2026-05-05 07:45 33.43093 -111.94459 1949 ft 148 kts 267°
2026-05-05 07:46 33.43103 -111.95689 1743 ft 148 kts 267°
2026-05-05 07:46 33.43100 -111.96909 1550 ft 147 kts 267°
2026-05-05 07:46 33.43103 -111.98145 1369 ft 147 kts 267°
2026-05-05 07:46 33.43108 -111.99368 1180 ft 147 kts 267°
2026-05-05 07:47 33.43101 -112.00491 1133 ft 114 kts 270°
2026-05-05 07:47 33.43104 -112.01273 1132 ft 75 kts 269°
2026-05-05 07:47 33.43119 -112.01776 1129 ft 44 kts 269°
2026-05-05 07:47 33.43146 -112.01986 1126 ft 6 kts 318°
2026-05-05 07:48 33.43185 -112.02000 1126 ft 6 kts 19°
2026-05-05 07:48 33.43208 -112.01963 1126 ft 4 kts 76°
2026-05-05 07:48 33.43211 -112.01931 1127 ft 3 kts 83°
2026-05-05 07:48 33.43214 -112.01907 1127 ft 4 kts 84°
2026-05-05 07:49 33.43221 -112.01855 1128 ft 9 kts 72°
2026-05-05 07:49 33.43278 -112.01769 1129 ft 17 kts 69°
2026-05-05 07:49 33.43288 -112.01590 1130 ft 24 kts 91°
2026-05-05 07:49 33.43288 -112.01371 1132 ft 26 kts 90°
2026-05-05 07:50 33.43287 -112.01170 1135 ft 21 kts 90°
2026-05-05 07:50 33.43285 -112.01009 1135 ft 17 kts 91°
2026-05-05 07:50 33.43285 -112.00871 1136 ft 16 kts 88°
2026-05-05 07:50 33.43287 -112.00724 1136 ft 19 kts 92°
2026-05-05 07:51 33.43281 -112.00542 1135 ft 23 kts 90°
2026-05-05 07:51 33.43285 -112.00343 1134 ft 24 kts 89°
2026-05-05 07:51 33.43290 -112.00193 1134 ft 16 kts 86°
2026-05-05 07:51 33.43308 -112.00054 1134 ft 14 kts 72°
2026-05-05 07:52 33.43342 -111.99994 1134 ft 3 kts 39°
2026-05-05 07:52 33.43360 -111.99976 1134 ft 0 kts 39°